GW4654 Weather Reports


time (UTC)temp
C
wind
direction
speed
KPH
gust
KPH
rain 1hr
cm
rain 24hr
cm
rain mn
cm
humidity
%
barometer
mb
20260507211731 15 227 1.6 1.6 0.00 0.00 0.00 40 1009.7
20260507211228 15 228 1.6 6.4 0.00 0.00 0.00 41 1009.7
20260507210725 16 214 3.2 4.8 0.00 0.00 0.00 42 1009.3
20260507210221 14 208 1.6 3.2 0.00 0.00 0.00 43 1009.6
20260507205718 14 208 4.8 11.3 0.00 0.00 0.00 43 1009.5
20260507205214 15 190 8.0 12.9 0.00 0.00 0.00 42 1009.6
20260507204711 15 227 1.6 4.8 0.00 0.00 0.00 43 1009.7
20260507204209 15 229 0.0 6.4 0.00 0.00 0.00 41 1009.4
20260507203707 15 234 0.0 9.7 0.00 0.00 0.00 42 1009.5
20260507203204 15 186 8.0 14.5 0.00 0.00 0.00 43 1009.5
20260507202659 14 223 0.0 11.3 0.00 0.00 0.00 43 1009.4
20260507202155 15 226 3.2 11.3 0.00 0.00 0.00 42 1009.5
20260507201650 15 235 0.0 6.4 0.00 0.00 0.00 43 1009.5
20260507201148 15 172 9.7 11.3 0.00 0.00 0.00 41 1009.7
20260507200644 15 223 1.6 16.1 0.00 0.00 0.00 42 1009.9
20260507200140 15 198 6.4 9.7 0.00 0.00 0.00 41 1009.8
20260507195637 16 229 3.2 6.4 0.00 0.00 0.00 43 1009.8
20260507195134 16 230 1.6 4.8 0.00 0.00 0.00 43 1009.7
20260507194631 15 192 4.8 11.3 0.00 0.00 0.00 43 1009.8
20260507194126 16 193 6.4 9.7 0.00 0.00 0.00 45 1009.8
20260507193623 16 233 0.0 1.6 0.00 0.00 0.00 42 1009.8
20260507193120 16 207 6.4 9.7 0.00 0.00 0.00 42 1010.0
20260507192617 15 215 6.4 16.1 0.00 0.00 0.00 43 1010.1
20260507192114 15 223 3.2 3.2 0.00 0.00 0.00 44 1010.0
20260507191609 15 229 1.6 3.2 0.00 0.00 0.00 45 1009.7
20260507191106 15 220 3.2 4.8 0.00 0.00 0.00 46 1010.0
20260507190604 15 201 0.0 3.2 0.00 0.00 0.00 45 1010.1
20260507185600 14 227 1.6 3.2 0.00 0.00 0.00 45 1010.4
20260507185056 14 206 4.8 4.8 0.00 0.00 0.00 46 1010.2
20260507184555 14 227 4.8 12.9 0.00 0.00 0.00 46 1010.3
20260507184052 15 223 0.0 3.2 0.00 0.00 0.00 48 1010.2
20260507183548 15 234 0.0 9.7 0.00 0.00 0.00 44 1010.3
20260507183045 16 228 3.2 11.3 0.00 0.00 0.00 45 1010.2
20260507182542 16 227 1.6 4.8 0.00 0.00 0.00 45 1010.3
20260507182037 15 230 1.6 4.8 0.00 0.00 0.00 46 1010.3
20260507181535 15 233 1.6 3.2 0.00 0.00 0.00 48 1010.5
20260507181031 15 222 1.6 3.2 0.00 0.00 0.00 47 1010.4
20260507180527 15 210 3.2 6.4 0.00 0.00 0.00 45 1010.3
20260507180025 15 215 1.6 6.4 0.00 0.00 0.00 47 1010.5
20260507175521 15 222 0.0 0.0 0.00 0.00 0.00 45 1010.4
20260507175018 15 210 4.8 4.8 0.00 0.00 0.00 45 1010.6
20260507174515 15 222 3.2 4.8 0.00 0.00 0.00 44 1010.6
20260507174013 15 219 1.6 6.4 0.00 0.00 0.00 46 1010.7
20260507173509 15 248 3.2 11.3 0.00 0.00 0.00 43 1011.0
20260507173007 14 232 0.0 4.8 0.00 0.00 0.00 48 1010.7
20260507172503 13 240 0.0 3.2 0.00 0.00 0.00 47 1010.9
20260507171959 13 187 11.3 12.9 0.00 0.00 0.00 46 1011.0
20260507171455 15 228 0.0 3.2 0.00 0.00 0.00 42 1011.2
20260507170953 15 223 4.8 11.3 0.00 0.00 0.00 44 1011.0
20260507170449 15 196 6.4 12.9 0.00 0.00 0.00 45 1010.9
20260507165945 14 224 3.2 6.4 0.00 0.00 0.00 46 1011.2
20260507165442 13 221 1.6 6.4 0.00 0.00 0.00 47 1011.2
20260507164938 14 221 1.6 6.4 0.00 0.00 0.00 47 1011.3
20260507164435 14 210 4.8 6.4 0.00 0.00 0.00 48 1011.3
20260507163931 15 219 1.6 4.8 0.00 0.00 0.00 46 1011.3
20260507163429 15 261 1.6 6.4 0.00 0.00 0.00 47 1011.4
20260507162926 15 170 6.4 11.3 0.00 0.00 0.00 45 1011.4
20260507162421 15 251 1.6 4.8 0.00 0.00 0.00 46 1011.6
20260507161919 14 188 12.9 16.1 0.00 0.00 0.00 45 1011.5
20260507161414 13 212 6.4 14.5 0.00 0.00 0.00 44 1011.7
20260507160912 15 198 4.8 9.7 0.00 0.00 0.00 41 1011.7
20260507160408 13 200 4.8 6.4 0.00 0.00 0.00 50 1011.6
20260507155904 13 179 6.4 11.3 0.00 0.00 0.00 48 1011.5
20260507155359 12 222 4.8 9.7 0.00 0.00 0.00 47 1011.7
20260507154857 13 247 0.0 6.4 0.00 0.00 0.00 48 1011.7
20260507154354 13 268 1.6 11.3 0.00 0.00 0.00 53 1011.7
20260507153851 13 229 0.0 6.4 0.00 0.00 0.00 51 1011.9
20260507153347 13 222 4.8 20.9 0.00 0.00 0.00 49 1012.1
20260507152844 13 219 1.6 3.2 0.00 0.00 0.00 52 1012.0
20260507152340 12 209 6.4 9.7 0.00 0.00 0.00 50 1012.3
20260507151836 12 226 0.0 1.6 0.00 0.00 0.00 50 1012.1
20260507151332 12 217 4.8 4.8 0.00 0.00 0.00 49 1012.3
20260507150830 13 221 1.6 9.7 0.00 0.00 0.00 51 1012.3
20260507150326 13 224 0.0 3.2 0.00 0.00 0.00 50 1012.4
20260507145822 12 200 3.2 9.7 0.00 0.00 0.00 57 1012.5
20260507145319 12 243 0.0 3.2 0.00 0.00 0.00 54 1012.5
20260507144816 12 229 0.0 4.8 0.00 0.00 0.00 52 1012.5
20260507144313 13 228 3.2 9.7 0.00 0.00 0.00 52 1012.5
20260507143810 13 223 1.6 3.2 0.00 0.00 0.00 54 1012.8
20260507143307 12 201 6.4 6.4 0.00 0.00 0.00 54 1012.8
20260507142803 13 253 1.6 6.4 0.00 0.00 0.00 59 1012.9
20260507142259 13 226 1.6 6.4 0.00 0.00 0.00 54 1012.7
20260507141756 12 238 3.2 6.4 0.00 0.00 0.00 57 1012.9
20260507141254 12 226 3.2 11.3 0.00 0.00 0.00 59 1013.1
20260507140749 12 215 4.8 6.4 0.00 0.00 0.00 62 1013.2
20260507140247 12 257 6.4 9.7 0.00 0.00 0.00 57 1013.2
20260507135744 11 241 3.2 3.2 0.00 0.00 0.00 60 1013.1
20260507135241 11 221 0.0 3.2 0.00 0.00 0.00 60 1013.1
20260507134737 11 220 3.2 12.9 0.00 0.00 0.00 61 1013.3
20260507134234 11 201 4.8 9.7 0.00 0.00 0.00 64 1013.3
20260507133730 11 233 1.6 3.2 0.00 0.00 0.00 60 1013.3
20260507133227 10 251 0.0 4.8 0.00 0.00 0.00 64 1013.4
20260507132724 10 226 3.2 4.8 0.00 0.00 0.00 63 1013.5
20260507132221 10 252 0.0 4.8 0.00 0.00 0.00 62 1013.7
20260507131717 10 282 3.2 6.4 0.00 0.00 0.00 64 1013.2
20260507131215 10 251 1.6 6.4 0.00 0.00 0.00 65 1013.5
20260507130711 10 226 0.0 3.2 0.00 0.00 0.00 62 1013.4
20260507130209 10 230 1.6 3.2 0.00 0.00 0.00 66 1013.3
20260507125708 10 254 3.2 3.2 0.00 0.00 0.00 62 1013.4
20260507125205 10 251 0.0 3.2 0.00 0.00 0.00 67 1013.7
20260507124701 10 237 0.0 1.6 0.00 0.00 0.00 66 1013.4
20260507124159 10 245 0.0 3.2 0.00 0.00 0.00 65 1013.4
20260507123657 10 246 1.6 1.6 0.00 0.00 0.00 70 1013.5
20260507123154 10 224 0.0 0.0 0.00 0.00 0.00 73 1013.4
20260507122649 10 224 0.0 0.0 0.00 0.00 0.00 71 1013.6
20260507122145 9 224 0.0 0.0 0.00 0.00 0.00 75 1013.3
20260507121641 8 224 0.0 0.0 0.00 0.00 0.00 77 1013.5
20260507121137 8 224 0.0 0.0 0.00 0.00 0.00 79 1013.6
20260507120633 8 224 0.0 0.0 0.00 0.00 0.00 74 1013.6
20260507120130 7 224 0.0 0.0 0.00 0.00 0.00 80 1013.4
20260507115627 7 225 0.0 0.0 0.00 0.00 0.00 81 1013.6
20260507115122 7 225 0.0 0.0 0.00 0.00 0.00 82 1013.4
20260507114618 7 225 0.0 0.0 0.00 0.00 0.00 81 1013.5
20260507114116 6 225 0.0 0.0 0.00 0.00 0.00 81 1013.6
20260507113613 6 225 0.0 0.0 0.00 0.00 0.00 79 1013.4
20260507113110 7 225 0.0 0.0 0.00 0.00 0.00 77 1013.3
20260507112608 6 225 0.0 0.0 0.00 0.00 0.00 80 1013.4
20260507112104 5 225 0.0 0.0 0.00 0.00 0.00 83 1013.4
20260507111602 4 225 0.0 0.0 0.00 0.00 0.00 92 1013.3
20260507111058 3 225 0.0 0.0 0.00 0.00 0.00 99 1013.3
20260507110554 3 225 0.0 0.0 0.00 0.00 0.00 99 1013.2
20260507110051 2 225 0.0 0.0 0.00 0.00 0.00 99 1013.2
20260507105548 1 225 0.0 0.0 0.00 0.00 0.00 99 1013.3
20260507105044 0 225 0.0 0.0 0.00 0.00 0.00 99 1013.1
20260507104542 0 225 0.0 0.0 0.00 0.00 0.00 99 1012.9
20260507104038 0 225 0.0 0.0 0.00 0.00 0.00 99 1012.9
20260507103534 0 225 0.0 0.0 0.00 0.00 0.00 99 1012.9
20260507103031 0 225 0.0 0.0 0.00 0.00 0.00 99 1012.9
20260507102527 0 225 0.0 0.0 0.00 0.00 0.00 99 1013.1
20260507102023 0 225 0.0 0.0 0.00 0.00 0.00 99 1013.1
20260507101519 0 225 0.0 0.0 0.00 0.00 0.00 99 1012.8
20260507101016 0 225 0.0 0.0 0.00 0.00 0.00 99 1012.8
20260507100513 0 225 0.0 0.0 0.00 0.00 0.00 99 1013.1
20260507100011 0 225 0.0 0.0 0.00 0.00 0.00 99 1013.0
20260507095509 0 225 0.0 0.0 0.00 0.00 0.00 99 1012.9
20260507095005 0 225 0.0 0.0 0.00 0.00 0.00 99 1012.7
20260507094501 0 225 0.0 0.0 0.00 0.00 0.00 99 1013.1
20260507093958 0 225 0.0 0.0 0.00 0.00 0.00 99 1013.0
20260507093455 1 225 0.0 0.0 0.00 0.00 0.00 99 1013.2
20260507092954 1 225 0.0 0.0 0.00 0.00 0.00 99 1013.1
20260507092450 0 225 0.0 0.0 0.00 0.00 0.00 99 1013.0
20260507091947 1 225 0.0 0.0 0.00 0.00 0.00 99 1013.0
20260507091444 1 225 0.0 0.0 0.00 0.00 0.00 99 1013.2
20260507090940 1 225 0.0 0.0 0.00 0.00 0.00 99 1013.0
20260507090436 1 225 0.0 0.0 0.00 0.00 0.00 99 1013.0
20260507085932 1 225 0.0 0.0 0.00 0.00 0.00 99 1013.1
20260507085430 1 225 0.0 0.0 0.00 0.00 0.00 99 1013.1
20260507084927 1 225 0.0 0.0 0.00 0.00 0.00 99 1012.8
20260507084424 1 225 0.0 0.0 0.00 0.00 0.00 99 1013.1
20260507083921 1 225 0.0 0.0 0.00 0.00 0.00 99 1013.2
20260507083417 1 225 0.0 0.0 0.00 0.00 0.00 99 1013.2
20260507082913 1 225 0.0 0.0 0.00 0.00 0.00 99 1013.0
20260507082409 1 225 0.0 0.0 0.00 0.00 0.00 99 1013.0
20260507081906 2 225 0.0 0.0 0.00 0.00 0.00 99 1012.8
20260507081402 2 225 0.0 0.0 0.00 0.00 0.00 99 1012.9
20260507080859 2 225 0.0 0.0 0.00 0.00 0.00 99 1012.9
20260507080355 2 225 0.0 0.0 0.00 0.00 0.00 99 1013.1
20260507075851 2 225 0.0 0.0 0.00 0.00 0.00 98 1013.1
20260507075347 2 225 0.0 0.0 0.00 0.00 0.00 98 1013.0
20260507074843 2 225 0.0 0.0 0.00 0.00 0.00 98 1013.0
20260507074341 2 225 0.0 0.0 0.00 0.00 0.00 98 1013.2
20260507073838 2 225 0.0 0.0 0.00 0.00 0.00 97 1013.0
20260507073334 2 225 0.0 0.0 0.00 0.00 0.00 97 1013.1
20260507072832 2 225 0.0 0.0 0.00 0.00 0.00 97 1013.1
20260507072329 2 225 0.0 0.0 0.00 0.00 0.00 97 1013.3
20260507071827 3 225 0.0 0.0 0.00 0.00 0.00 97 1013.2
20260507071324 3 225 0.0 0.0 0.00 0.00 0.00 97 1013.1
20260507070820 3 225 0.0 0.0 0.00 0.00 0.00 96 1013.3
20260507070317 3 225 0.0 0.0 0.00 0.00 0.00 96 1013.0
20260507065814 3 225 0.0 0.0 0.00 0.00 0.00 96 1013.2
20260507065310 3 225 0.0 0.0 0.00 0.00 0.00 95 1013.3
20260507064808 3 225 0.0 0.0 0.00 0.00 0.00 95 1013.1
20260507064306 4 225 0.0 0.0 0.00 0.00 0.00 95 1013.1
20260507063804 4 225 0.0 0.0 0.00 0.00 0.00 94 1013.1
20260507063301 5 225 0.0 0.0 0.00 0.00 0.00 92 1013.2
20260507062757 5 225 0.0 0.0 0.00 0.00 0.00 90 1013.3
20260507062254 5 225 0.0 0.0 0.00 0.00 0.00 89 1013.1
20260507061753 5 225 0.0 0.0 0.00 0.00 0.00 92 1013.2
20260507061250 6 225 0.0 0.0 0.00 0.00 0.00 90 1012.9
20260507060748 6 225 0.0 0.0 0.00 0.00 0.00 87 1013.1
20260507060244 6 225 0.0 0.0 0.00 0.00 0.00 88 1013.4
20260507055741 6 225 0.0 0.0 0.00 0.00 0.00 88 1013.3
20260507055236 6 225 0.0 0.0 0.00 0.00 0.00 89 1013.4
20260507054733 6 225 0.0 0.0 0.00 0.00 0.00 87 1013.4
20260507054230 6 225 0.0 0.0 0.00 0.00 0.00 87 1013.4
20260507053727 6 225 0.0 0.0 0.00 0.00 0.00 87 1013.5
20260507053225 6 225 0.0 0.0 0.00 0.00 0.00 87 1013.8
20260507052724 6 225 0.0 0.0 0.00 0.00 0.00 86 1013.8
20260507052219 7 225 0.0 0.0 0.00 0.00 0.00 84 1013.9
20260507051717 7 225 0.0 0.0 0.00 0.00 0.00 84 1014.0
20260507051214 7 225 0.0 0.0 0.00 0.00 0.00 81 1014.0
20260507050710 7 225 0.0 0.0 0.00 0.00 0.00 73 1013.9
20260507050208 7 225 0.0 0.0 0.00 0.00 0.00 74 1013.8
20260507045704 7 225 0.0 0.0 0.00 0.00 0.00 74 1013.8
20260507045201 7 225 0.0 0.0 0.00 0.00 0.00 76 1013.8
20260507044658 7 225 0.0 0.0 0.00 0.00 0.00 84 1013.8
20260507044154 7 225 0.0 0.0 0.00 0.00 0.00 77 1013.8
20260507043651 7 225 0.0 0.0 0.00 0.00 0.00 74 1013.9
20260507043148 7 225 0.0 0.0 0.00 0.00 0.00 71 1014.0
20260507042644 7 225 0.0 0.0 0.00 0.00 0.00 70 1013.9
20260507042139 7 225 0.0 0.0 0.00 0.00 0.00 70 1013.8
20260507041637 7 225 0.0 0.0 0.00 0.00 0.00 73 1013.9
20260507041132 7 225 0.0 0.0 0.00 0.00 0.00 77 1013.6
20260507040630 7 224 0.0 0.0 0.00 0.00 0.00 84 1013.6
20260507040121 7 224 0.0 0.0 0.00 0.00 0.00 87 1013.6
20260507035617 7 224 0.0 0.0 0.00 1.60 1.60 88 1013.7
20260507035113 7 224 0.0 0.0 0.00 1.60 1.60 86 1013.8
20260507034610 7 224 0.0 0.0 0.00 1.60 1.60 85 1013.8
20260507034108 7 224 0.0 0.0 0.00 1.60 1.60 85 1013.4
20260507033606 7 224 0.0 0.0 0.00 1.60 1.60 84 1013.3
20260507033102 7 224 0.0 0.0 0.00 1.60 1.60 84 1013.5
20260507032559 7 224 0.0 0.0 0.00 1.60 1.60 83 1013.5
20260507032055 7 224 0.0 0.0 0.00 1.60 1.60 82 1013.3
20260507031552 7 224 0.0 0.0 0.00 1.60 1.60 84 1013.5
20260507031050 7 224 0.0 0.0 0.00 1.60 1.60 83 1013.8
20260507030546 7 224 0.0 0.0 0.00 1.60 1.60 83 1013.5
20260507030044 7 224 0.0 0.0 0.00 1.60 1.60 81 1013.5
20260507025541 7 224 0.0 0.0 0.00 1.60 1.60 80 1013.4
20260507025038 7 224 0.0 0.0 0.00 1.60 1.60 79 1013.1
20260507024535 8 224 0.0 0.0 0.00 1.60 1.60 80 1013.0
20260507024032 8 224 0.0 0.0 0.00 1.60 1.60 80 1013.3
20260507023528 8 224 0.0 0.0 0.00 1.60 1.60 75 1013.0
20260507023026 8 224 0.0 0.0 0.00 1.60 1.60 76 1013.2
20260507022522 8 224 0.0 0.0 0.00 1.60 1.60 69 1013.1
20260507022017 8 224 0.0 0.0 0.00 1.60 1.60 64 1013.1
20260507021514 8 224 0.0 0.0 0.00 1.60 1.60 64 1013.3
20260507021011 8 224 0.0 0.0 0.00 1.60 1.60 64 1013.0
20260507020508 9 225 0.0 0.0 0.00 1.60 1.60 64 1012.8
20260507020004 9 225 1.6 6.4 0.00 1.60 1.60 63 1012.8
20260507015503 9 226 0.0 3.2 0.00 1.60 1.60 63 1012.7
20260507015001 9 226 0.0 1.6 0.00 1.60 1.60 64 1012.6
20260507014457 9 229 0.0 0.0 0.00 1.60 1.60 66 1012.5
20260507013953 9 229 0.0 0.0 0.00 1.60 1.60 64 1012.5
20260507013449 9 229 0.0 0.0 0.00 1.60 1.60 63 1012.7
20260507012947 9 229 1.6 3.2 0.00 1.60 1.60 64 1012.6
20260507012443 9 236 0.0 1.6 0.00 1.60 1.60 63 1012.6
20260507011940 9 230 0.0 0.0 0.00 1.60 1.60 64 1012.7
20260507011437 9 241 0.0 3.2 0.00 1.60 1.60 64 1012.7
20260507010937 9 228 0.0 1.6 0.00 1.60 1.60 66 1012.8
20260507010432 10 227 1.6 3.2 0.00 1.60 1.60 61 1013.0
20260507005929 10 227 0.0 0.0 0.00 1.60 1.60 65 1013.3
20260507005426 10 231 0.0 1.6 0.00 1.60 1.60 64 1013.2
20260507004923 10 231 0.0 0.0 0.00 1.60 1.60 64 1013.1
20260507004420 10 232 0.0 0.0 0.00 1.60 1.60 63 1013.1
20260507003917 10 232 0.0 1.6 0.00 1.60 1.60 61 1012.9
20260507003412 10 241 0.0 0.0 0.00 1.60 1.60 65 1013.0
20260507002908 10 241 0.0 0.0 0.00 1.60 1.60 64 1013.2
20260507002404 10 225 0.0 1.6 0.00 1.60 1.60 63 1012.7
20260507001902 10 226 0.0 0.0 0.00 1.60 1.60 63 1013.0
20260507001358 10 224 1.6 3.2 0.00 1.60 1.60 62 1012.7
20260507000855 10 225 0.0 1.6 0.00 1.60 1.60 64 1012.7
20260507000350 10 235 0.0 0.0 0.00 1.60 1.60 66 1013.0
20260506235847 10 209 3.2 3.2 0.00 1.60 1.60 65 1012.9
20260506235344 10 227 0.0 0.0 0.00 1.60 1.60 66 1012.6
20260506234834 10 227 0.0 3.2 0.00 1.60 1.60 65 1012.4
20260506234333 10 228 1.6 1.6 0.00 1.60 1.60 64 1012.7
20260506233830 11 228 0.0 1.6 0.00 1.60 1.60 66 1012.5
20260506233325 11 226 0.0 0.0 0.00 1.60 1.60 64 1012.1
20260506232823 11 231 0.0 1.6 0.00 1.60 1.60 64 1012.2
20260506232318 11 228 0.0 0.0 0.00 1.60 1.60 66 1012.1
20260506231815 11 228 0.0 4.8 0.00 1.60 1.60 69 1012.2
20260506231313 11 226 0.0 0.0 0.00 1.60 1.60 68 1012.2
20260506230810 11 226 0.0 3.2 0.00 1.60 1.60 66 1012.0
20260506230307 11 224 0.0 1.6 0.00 1.60 1.60 69 1011.7
20260506225803 11 224 3.2 4.8 0.00 1.60 1.60 68 1011.7
20260506225300 11 225 1.6 6.4 0.00 1.60 1.60 67 1011.7
20260506224757 11 222 0.0 3.2 0.00 1.60 1.60 68 1011.6
20260506224254 11 224 0.0 0.0 0.00 1.60 1.60 69 1011.6
20260506223749 11 224 0.0 0.0 0.00 1.60 1.60 69 1011.7
20260506223240 11 224 0.0 0.0 0.00 1.60 1.60 68 1011.6
20260506222737 11 228 3.2 3.2 0.00 1.60 1.60 68 1011.5
20260506222232 11 228 0.0 1.6 0.00 1.60 1.60 70 1011.5
20260506221730 11 226 0.0 3.2 0.00 1.60 1.60 70 1011.5
20260506221228 12 194 4.8 11.3 0.00 1.60 1.60 66 1011.5
20260506220725 12 225 0.0 0.0 0.00 1.60 1.60 72 1011.2
20260506220219 12 199 4.8 6.4 0.00 1.60 1.60 70 1011.0
20260506215717 11 219 1.6 3.2 0.00 1.60 1.60 72 1011.3
20260506215212 11 233 0.0 1.6 0.00 1.60 1.60 71 1011.0
20260506214709 11 228 0.0 3.2 0.00 1.60 1.60 73 1011.2
20260506214206 11 219 1.6 12.9 0.00 1.60 1.60 72 1011.0
20260506213705 11 217 0.0 4.8 0.00 1.60 1.60 74 1011.1
20260506213202 11 217 0.0 4.8 0.00 1.60 1.60 74 1011.1
20260506212659 11 235 0.0 9.7 0.00 1.60 1.60 72 1011.1
20260506212154 12 201 3.2 9.7 0.00 1.60 1.60 71 1011.1